Overview Statistics Trail Chart Weather Telemetry Raw packets
 

This is the latest recevied weather packets stored in our database for station/object 4S6DRJ-13. If no packets are shown the sender has not sent any weather packets the latest 10 day(s).

<< 426 427 428 429 430 431 432 >>
Time Temp. Humidity Pressure Rain* Wind** Luminosity Snow
1787812356 29.44° C 76% 1010 hPa 0 mm 1.79 m/s, 286° 471 W/m² -
1787812295 29.44° C 76% 1010.1 hPa 0 mm 2.68 m/s, 257° 507 W/m² -
1787812234 29.44° C 76% 1010.2 hPa 0 mm 3.58 m/s, 262° 498 W/m² -
1787812173 29.44° C 77% 1010.1 hPa 0 mm 1.79 m/s, 306° 477 W/m² -
1787812112 29.44° C 76% 1010.4 hPa 0 mm 1.79 m/s, 307° 483 W/m² -
1787812051 29.44° C 76% 1010.1 hPa 0 mm 1.34 m/s, 296° 506 W/m² -
1787811990 29.44° C 77% 1010.4 hPa 0 mm 1.79 m/s, 176° 516 W/m² -
1787811929 29.44° C 76% 1010.4 hPa 0 mm 2.24 m/s, 236° 509 W/m² -
1787811868 29.44° C 76% 1010.1 hPa 0 mm 1.34 m/s, 171° 516 W/m² -
1787811807 30° C 75% 1010.4 hPa 0 mm 1.79 m/s, 313° 518 W/m² -
1787811746 30° C 75% 1010.2 hPa 0 mm 3.13 m/s, 278° 539 W/m² -
1787811686 30° C 76% 1010.3 hPa 0 mm 2.68 m/s, 303° 557 W/m² -
1787811625 30° C 76% 1010.5 hPa 0 mm 0.89 m/s, 160° 542 W/m² -
1787811563 30° C 76% 1010.4 hPa 0 mm 1.34 m/s, 292° 427 W/m² -
1787811502 30° C 76% 1010.4 hPa 0 mm 1.34 m/s, 273° 382 W/m² -
1787811441 30° C 76% 1010.4 hPa 0 mm 0.89 m/s, 287° 364 W/m² -
1787811381 29.44° C 76% 1010.6 hPa 0 mm 2.24 m/s, 268° 405 W/m² -
1787811320 29.44° C 76% 1010.4 hPa 0 mm 1.79 m/s, 309° 609 W/m² -
1787811258 29.44° C 75% 1010.4 hPa 0 mm 0.89 m/s, 205° 602 W/m² -
1787811197 29.44° C 76% 1010.6 hPa 0 mm 1.34 m/s, 178° 545 W/m² -
1787811136 29.44° C 76% 1010.7 hPa 0 mm 2.24 m/s, 322° 582 W/m² -
1787811076 30° C 76% 1010.5 hPa 0 mm 3.58 m/s, 140° 406 W/m² -
1787811015 30° C 75% 1010.6 hPa 0 mm 4.02 m/s, 326° 457 W/m² -
1787810954 30° C 76% 1010.5 hPa 0 mm 0.89 m/s, 336° 676 W/m² -
1787810893 30° C 75% 1010.6 hPa 0 mm 1.34 m/s, 269° 674 W/m² -

* Rain latest hour (hover to see other rain measurements)
** Current wind speed in m/s (hover to see current wind gust speed)